Location: Bletchingley
(51.2333°N, 0.1000°W)
Time: 01:38:19
(UTC+00:00)

Cosmos 1544 - Pass Details

Date: 18 September 2020
Orbit: 471 x 491 km, 82.5° (Epoch: 30 October)

Event Time Altitude Azimuth Distance (km) Brightness Sun altitude
Rises 18:55:21 0° 198° (SSW) 2,556 6.8 -8.3°
Reaches altitude 10° 18:57:29 10° 203° (SSW) 1,677 5.9 -8.7°
Maximum altitude 19:01:06 58° 283° (WNW) 577 3.8 -9.2°
Drops below altitude 10° 19:04:44 10° 3° (N) 1,682 5.9 -9.8°
Sets 19:06:53 0° 8° (N) 2,564 6.8 -10.1°
